This demonstration page uses our WeatherBlox Daily Observations layout. Learn more.

Left ArrowRight Arrow

Hourly Observations for November 1, 2018

Temp ( °F °C ) Dew Point ( °F °C ) Humidity (%) Winds ( mph kmh ) Pressure ( in mb ) Visibility ( mi km ) Precip ( " mm )
12:57 am 00:57 Clear 34 1.1 28 -2.2 79 79 Calm 29.97 1015 10 16 0.00 0.00
1:57 am 01:57 Clear 34 1.1 27 -2.8 76 76 WSW 5 7 29.96 1014 10 16 0.00 0.00
2:57 am 02:57 Clear 33 0.6 27 -2.8 78 78 Calm 29.94 1014 10 16 0.00 0.00
3:57 am 03:57 Clear 34 1.1 27 -2.8 76 76 W 3 6 29.95 1014 10 16 0.00 0.00
4:57 am 04:57 Clear 32 0 26 -3.3 79 79 W 3 6 29.94 1014 10 16 0.00 0.00
5:57 am 05:57 Clear 33 0.6 27 -2.8 78 78 NW 6 9 29.93 1014 10 16 0.00 0.00
6:57 am 06:57 Clear 32 0 26 -3.3 79 79 WNW 6 9 29.93 1014 10 16 0.00 0.00
7:57 am 07:57 Clear 33 0.6 26 -3.3 75 75 W 6 9 29.93 1014 10 16 0.00 0.00
8:57 am 08:57 Sunny 33 0.6 28 -2.2 82 82 Calm 29.94 1014 10 16 0.00 0.00
9:57 am 09:57 Sunny 42 5.6 33 0.6 71 71 Calm 29.93 1014 10 16 0.00 0.00
10:57 am 10:57 Sunny 49 9.4 32 0 52 52 WSW 10 17 29.92 1013 10 16 0.00 0.00
11:57 am 11:57 Sunny 54 12.2 33 0.6 45 45 WSW 13 20 29.91 1013 10 16 0.00 0.00
12:57 pm 12:57 Sunny 59 15 29 -1.7 32 32 WSW 13 20 29.87 1012 10 16 0.00 0.00
1:57 pm 13:57 Partly Cloudy 59 15 28 -2.2 31 31 WSW 18 30 29.84 1010 10 16 0.00 0.00
2:57 pm 14:57 Mostly Cloudy 59 15 31 -0.6 35 35 SW 16 26 29.82 1010 10 16 0.00 0.00
3:57 pm 15:57 Sunny 60 15.6 28 -2.2 30 30 WSW 15 24 29.80 1009 10 16 0.00 0.00
4:57 pm 16:57 Mostly Cloudy 59 15 28 -2.2 31 31 WSW 15 24 29.80 1009 10 16 0.00 0.00
5:57 pm 17:57 Cloudy 56 13.3 29 -1.7 36 36 WNW 8 13 29.80 1009 10 16 0.00 0.00
6:57 pm 18:57 Cloudy 52 11.1 30 -1.1 43 43 NW 5 7 29.83 1010 10 16 0.00 0.00
7:57 pm 19:57 Mostly Cloudy 52 11.1 29 -1.7 41 41 NNW 13 20 29.85 1011 10 16 0.00 0.00
8:57 pm 20:57 Clear 44 6.7 29 -1.7 55 55 NW 7 11 29.88 1012 10 16 0.00 0.00
9:57 pm 21:57 Clear 43 6.1 29 -1.7 58 58 NW 9 15 29.87 1012 10 16 0.00 0.00
10:57 pm 22:57 Clear 38 3.3 30 -1.1 73 73 WNW 9 15 29.89 1012 10 16 0.00 0.00
11:57 pm 23:57 Clear 41 5 33 0.6 73 73 WNW 7 11 29.88 1012 10 16 0.00 0.00

Powered by AerisWeather